Tiempo cada hora Murmishki

Hoy, 23 Octubre, Viernes

Tiempo Temperatura Precipitaciones Viento Presión Humedad
00:00 +11°C° 0 mm 6 mps 743 mmHg 85%
01:00 +12°C° 0 mm 5 mps 744 mmHg 87%
02:00 +11°C° 0 mm 4 mps 744 mmHg 88%
03:00 +11°C° 0 mm 4 mps 743 mmHg 90%
04:00 +10°C° 0 mm 4 mps 743 mmHg 93%
05:00 +10°C° 0 mm 4 mps 743 mmHg 95%
06:00 +10°C° 0 mm 4 mps 742 mmHg 94%
07:00 +10°C° 0 mm 4 mps 742 mmHg 94%
08:00 +10°C° 0 mm 5 mps 742 mmHg 93%
09:00 +11°C° 0 mm 6 mps 741 mmHg 89%
10:00 +13°C° 0 mm 6 mps 741 mmHg 85%
11:00 +14°C° 0 mm 7 mps 741 mmHg 81%
12:00 +14°C° 0.1 mm 7 mps 741 mmHg 77%
13:00 +14°C° 0.1 mm 7 mps 741 mmHg 73%
14:00 +14°C° 0.1 mm 7 mps 741 mmHg 70%
15:00 +9°C° 0.1 mm 3 mps 743 mmHg 88%
16:00 +10°C° 0.1 mm 4 mps 742 mmHg 84%
17:00 +10°C° 0.1 mm 5 mps 742 mmHg 80%
18:00 +10°C° 0 mm 4 mps 742 mmHg 82%
19:00 +10°C° 0 mm 4 mps 742 mmHg 84%
20:00 +8°C° 0 mm 4 mps 743 mmHg 86%
21:00 +8°C° 0 mm 4 mps 743 mmHg 89%
22:00 +7°C° 0 mm 4 mps 743 mmHg 91%
23:00 +8°C° 0 mm 3 mps 743 mmHg 94%

Mañana, 24 Octubre, Sábado

Tiempo Temperatura Precipitaciones Viento Presión Humedad
00:00 +8°C° 0 mm 3 mps 743 mmHg 94%
01:00 +8°C° 0 mm 3 mps 743 mmHg 95%
02:00 +8°C° 0 mm 3 mps 744 mmHg 95%
03:00 +8°C° 0 mm 3 mps 744 mmHg 95%
04:00 +8°C° 0 mm 3 mps 743 mmHg 94%
05:00 +8°C° 0 mm 3 mps 743 mmHg 94%
06:00 +8°C° 0 mm 3 mps 743 mmHg 93%
07:00 +8°C° 0 mm 3 mps 744 mmHg 91%
08:00 +9°C° 0 mm 3 mps 744 mmHg 90%
09:00 +9°C° 0 mm 3 mps 744 mmHg 85%
10:00 +10°C° 0 mm 4 mps 744 mmHg 80%
11:00 +10°C° 0 mm 4 mps 744 mmHg 75%
12:00 +11°C° 0 mm 3 mps 744 mmHg 73%
13:00 +11°C° 0 mm 3 mps 744 mmHg 71%
14:00 +12°C° 0 mm 3 mps 744 mmHg 70%
15:00 +11°C° 0 mm 3 mps 744 mmHg 75%
16:00 +10°C° 0 mm 3 mps 744 mmHg 81%
17:00 +9°C° 0 mm 2 mps 744 mmHg 87%
18:00 +9°C° 0.1 mm 3 mps 744 mmHg 87%
19:00 +10°C° 0.1 mm 4 mps 744 mmHg 87%
20:00 +9°C° 0.1 mm 5 mps 744 mmHg 86%
21:00 +10°C° 0.1 mm 4 mps 744 mmHg 88%
22:00 +8°C° 0.1 mm 4 mps 745 mmHg 91%
23:00 +8°C° 0.1 mm 4 mps 745 mmHg 93%

Pasado mañana, 25 Octubre, Domingo

Tiempo Temperatura Precipitaciones Viento Presión Humedad
00:00 +7°C° 0 mm 4 mps 745 mmHg 93%
01:00 +8°C° 0 mm 3 mps 746 mmHg 94%
02:00 +8°C° 0 mm 3 mps 746 mmHg 94%
03:00 +8°C° 0 mm 3 mps 747 mmHg 94%
04:00 +8°C° 0 mm 3 mps 747 mmHg 94%
05:00 +8°C° 0 mm 3 mps 748 mmHg 94%
06:00 +9°C° 0 mm 3 mps 748 mmHg 92%
07:00 +9°C° 0 mm 3 mps 748 mmHg 91%
08:00 +9°C° 0 mm 3 mps 748 mmHg 90%
09:00 +9°C° 0 mm 3 mps 749 mmHg 87%
10:00 +10°C° 0 mm 3 mps 749 mmHg 84%
11:00 +10°C° 0 mm 3 mps 750 mmHg 81%
12:00 +10°C° 0 mm 3 mps 750 mmHg 79%
13:00 +11°C° 0 mm 3 mps 750 mmHg 77%
14:00 +11°C° 0 mm 3 mps 750 mmHg 75%
15:00 +10°C° 0 mm 2 mps 750 mmHg 80%
16:00 +9°C° 0 mm 2 mps 750 mmHg 84%
17:00 +10°C° 0 mm 1 mps 750 mmHg 89%
18:00 +8°C° 0 mm 2 mps 750 mmHg 90%
19:00 +8°C° 0 mm 2 mps 750 mmHg 92%
20:00 +8°C° 0 mm 2 mps 751 mmHg 93%
21:00 +8°C° 0 mm 2 mps 751 mmHg 94%
22:00 +7°C° 0 mm 2 mps 751 mmHg 94%
23:00 +7°C° 0 mm 2 mps 751 mmHg 95%

, 26 Octubre, Lunes

Tiempo Temperatura Precipitaciones Viento Presión Humedad
00:00 +7°C° 0 mm 2 mps 751 mmHg 95%
01:00 +7°C° 0 mm 2 mps 751 mmHg 95%
02:00 +7°C° 0 mm 2 mps 751 mmHg 95%
03:00 +7°C° 0 mm 2 mps 751 mmHg 95%
04:00 +6°C° 0 mm 2 mps 751 mmHg 95%
05:00 +6°C° 0 mm 2 mps 751 mmHg 95%
06:00 +5°C° 0 mm 3 mps 751 mmHg 95%
07:00 +5°C° 0 mm 3 mps 751 mmHg 94%
08:00 +5°C° 0 mm 3 mps 751 mmHg 94%
09:00 +8°C° 0 mm 3 mps 751 mmHg 89%
10:00 +8°C° 0 mm 4 mps 751 mmHg 84%
11:00 +10°C° 0 mm 4 mps 751 mmHg 79%
12:00 +11°C° 0 mm 4 mps 751 mmHg 77%
13:00 +12°C° 0 mm 5 mps 751 mmHg 74%
14:00 +12°C° 0 mm 5 mps 750 mmHg 72%
15:00 +11°C° 0 mm 4 mps 750 mmHg 76%
16:00 +10°C° 0 mm 4 mps 750 mmHg 80%
17:00 +8°C° 0 mm 4 mps 749 mmHg 84%
18:00 +8°C° 0 mm 4 mps 750 mmHg 86%
19:00 +8°C° 0 mm 4 mps 750 mmHg 88%
20:00 +8°C° 0 mm 4 mps 750 mmHg 90%
21:00 +8°C° 0 mm 5 mps 750 mmHg 88%
22:00 +8°C° 0 mm 5 mps 749 mmHg 86%
23:00 +9°C° 0 mm 5 mps 749 mmHg 84%

26 Octubre, Lunes

Tiempo Temperatura Precipitaciones Viento Presión Humedad
00:00 +7°C° 0 mm 2 mps 751 mmHg 95%
01:00 +7°C° 0 mm 2 mps 751 mmHg 95%
02:00 +7°C° 0 mm 2 mps 751 mmHg 95%
03:00 +7°C° 0 mm 2 mps 751 mmHg 95%
04:00 +6°C° 0 mm 2 mps 751 mmHg 95%
05:00 +6°C° 0 mm 2 mps 751 mmHg 95%
06:00 +5°C° 0 mm 3 mps 751 mmHg 95%
07:00 +5°C° 0 mm 3 mps 751 mmHg 94%
08:00 +5°C° 0 mm 3 mps 751 mmHg 94%
09:00 +8°C° 0 mm 3 mps 751 mmHg 89%
10:00 +8°C° 0 mm 4 mps 751 mmHg 84%
11:00 +10°C° 0 mm 4 mps 751 mmHg 79%
12:00 +11°C° 0 mm 4 mps 751 mmHg 77%
13:00 +12°C° 0 mm 5 mps 751 mmHg 74%
14:00 +12°C° 0 mm 5 mps 750 mmHg 72%
15:00 +11°C° 0 mm 4 mps 750 mmHg 76%
16:00 +10°C° 0 mm 4 mps 750 mmHg 80%
17:00 +8°C° 0 mm 4 mps 749 mmHg 84%
18:00 +8°C° 0 mm 4 mps 750 mmHg 86%
19:00 +8°C° 0 mm 4 mps 750 mmHg 88%
20:00 +8°C° 0 mm 4 mps 750 mmHg 90%
21:00 +8°C° 0 mm 5 mps 750 mmHg 88%
22:00 +8°C° 0 mm 5 mps 749 mmHg 86%
23:00 +9°C° 0 mm 5 mps 749 mmHg 84%

27 Octubre, Martes

Tiempo Temperatura Precipitaciones Viento Presión Humedad
00:00 +8°C° 0 mm 5 mps 749 mmHg 85%
01:00 +8°C° 0 mm 5 mps 749 mmHg 86%
02:00 +8°C° 0 mm 5 mps 748 mmHg 88%
03:00 +8°C° 0 mm 5 mps 748 mmHg 88%
04:00 +8°C° 0 mm 5 mps 748 mmHg 89%
05:00 +8°C° 0 mm 4 mps 748 mmHg 89%
06:00 +8°C° 0 mm 4 mps 748 mmHg 90%
07:00 +9°C° 0 mm 5 mps 748 mmHg 90%
08:00 +9°C° 0 mm 5 mps 748 mmHg 90%
09:00 +10°C° 0 mm 5 mps 748 mmHg 88%
10:00 +12°C° 0 mm 5 mps 748 mmHg 85%
11:00 +11°C° 0 mm 6 mps 748 mmHg 82%
12:00 +12°C° 0 mm 5 mps 748 mmHg 81%
13:00 +13°C° 0 mm 5 mps 748 mmHg 80%
14:00 +13°C° 0 mm 5 mps 748 mmHg 80%
15:00 +13°C° 0 mm 5 mps 748 mmHg 81%
16:00 +12°C° 0 mm 5 mps 748 mmHg 82%
17:00 +12°C° 0 mm 4 mps 748 mmHg 83%
18:00 +12°C° 0 mm 4 mps 748 mmHg 84%
19:00 +11°C° 0 mm 4 mps 748 mmHg 84%
20:00 +11°C° 0 mm 4 mps 748 mmHg 85%
21:00 +11°C° 0 mm 4 mps 748 mmHg 88%
22:00 +10°C° 0 mm 4 mps 748 mmHg 91%
23:00 +8°C° 0 mm 4 mps 748 mmHg 93%

28 Octubre, Miércoles

Tiempo Temperatura Precipitaciones Viento Presión Humedad
00:00 +9°C° 0 mm 3 mps 748 mmHg 94%
01:00 +9°C° 0 mm 3 mps 748 mmHg 95%
02:00 +9°C° 0 mm 3 mps 748 mmHg 96%
03:00 +9°C° 0 mm 3 mps 748 mmHg 96%
04:00 +9°C° 0 mm 3 mps 748 mmHg 96%
05:00 +9°C° 0 mm 3 mps 748 mmHg 97%
06:00 +9°C° 0 mm 3 mps 748 mmHg 97%
07:00 +9°C° 0 mm 3 mps 749 mmHg 97%
08:00 +9°C° 0 mm 3 mps 749 mmHg 96%
09:00 +10°C° 0 mm 3 mps 749 mmHg 92%
10:00 +12°C° 0 mm 3 mps 749 mmHg 87%
11:00 +13°C° 0 mm 3 mps 749 mmHg 82%
12:00 +13°C° 0 mm 3 mps 749 mmHg 80%
13:00 +14°C° 0 mm 3 mps 749 mmHg 79%
14:00 +16°C° 0 mm 3 mps 749 mmHg 77%
15:00 +13°C° 0 mm 3 mps 749 mmHg 82%
16:00 +13°C° 0 mm 2 mps 748 mmHg 87%
17:00 +12°C° 0 mm 2 mps 748 mmHg 92%
18:00 +12°C° 0 mm 2 mps 748 mmHg 93%
19:00 +12°C° 0 mm 2 mps 748 mmHg 94%
20:00 +11°C° 0 mm 3 mps 748 mmHg 95%
21:00 +11°C° 0 mm 3 mps 748 mmHg 95%
22:00 +10°C° 0 mm 3 mps 748 mmHg 96%
23:00 +10°C° 0 mm 3 mps 748 mmHg 96%
Mostrar más

Necesitamos Su Consentimiento

Meteoprog y nuestros Proveedores de Servicios pueden almacenar y acceder a sus datos personales como cookies, identificadores de dispositivo u otras tecnologías similares de su dispositivo y procesar dichos datos para personalizar contenido y anuncios, además de ofrecer funciones de redes sociales y analizar el tráfico.

  • Almacenar y/o acceder a información en su dispositivo

    Se puede almacenar o acceder a cookies, identificadores de dispositivo u otra información de su dispositivo para los fines anteriormente indicados.

  • Anuncios y contenido personalizados, medición de anuncios y contenido, percepciones del público, y desarrollo de productos

    Los anuncios y el contenido pueden personalizarse en base a su perfil. Se pueden añadir más datos para personalizar mejor los anuncios y contenidos. Se puede medir el rendimiento de los anuncios y contenidos. Se puede obtener la percepción sobre el público que ha visto los anuncios y contenidos. Dichos datos pueden usarse para desarrollar o mejorar la experiencia del usuario, sistemas y software.

Al hacer clic en ‘Estoy De Acuerdo’ usted permitirá el uso de las cookies, identificadores de dispositivo, balizas web u otras tecnologías similares indicadas. Su configuración puede cambiarse desde el navegador de su dispositivo.

Para ciertos fines, los intereses legítimos pueden ser considerados por encima del consentimiento. Puede leer más sobre ello en nuestra Política de Privacidad y Cookies.